Weather in Mel'nichnoye

Russia / Primorsky Krai     45°26′04″N   135°31′10″E
temp.,
°C
wind,
m/s
gust,
m/s
humid.,
%
clouds,
%
prec.,
mm/h
press.,
hPa
HPBL,
m
28 january, thu
thu2801:00−20wnw2129999 0.1 1021745
04:00−21nw229999 0.3 102230
07:00−24wnw1110099 0.1 102120
10:00−21se119768 0.1 102178
13:00−16se118495 0.0 1017382
16:00−15ene128998 0.1 1014299
19:00−15ene1298100 1.2 1012116
22:00−15nne2497100 2.9 1011190
29 january, fri
fri2901:00−14nne2997100 2.1 1008505
04:00−16nnw3597100 3.7 1003312
07:00−19nnw3698100 1.8 1003332
10:00−20nw4798100 3.1 1005383
13:00−19nw4894100 0.4 1005568
16:00−20nw51196100 0.8 1007654
19:00−23nw51197100 1.3 1011742
22:00−24nw4997100 2.1 1015661
30 january, sat
sat3001:00−26nw3697100 0.1 1017449
04:00−28nw2399100 0.2 1019145
07:00−30nw2299100 0.1 102158
10:00−29wnw2298100 0.1 1023155
13:00−24nw3495100 0.0 1022460
16:00−23nw3594100 0.1 1022465
19:00−29nw22100100 0.0 102547
22:00−31nw22100100 0.1 102623
31 january, sun
sun3101:00−33nw2210094 0.0 102720
04:00−34nw2210063 0.0 102819
07:00−34nw12992 0.0 102919
10:00−29wnw12977 0.0 1030103
13:00−22nw368931 0.0 1028650
16:00−21nw378960 0.0 1026703
19:00−28nw229985 0.0 102926
22:00−30wnw1210083 0.0 103019
1 february, mon
mon101:00−32wsw1110029 0.0 102919
04:00−32se129818 0.0 102719
07:00−30ese229749 0.0 102241
10:00−25se229774 0.1 101789
13:00−15se2294100 0.9 1012176
16:00−10nw1293100 1.4 1008289
19:00−17nw3498100 0.3 1010126
22:00−24nw249999 0.4 1012117